Wind_Speed
13 12 11 11 11 12 13 15 18 21 22 22 22 23 24 26 27 27 28 29 30 30 31 31 31 31 30 29 28 28 28 27 27 27 25 25 24 23 22 22 22 21 20 20
13 13 12 11 12 14 15 16 18 21 23 23 24 25 27 28 28 28 28 29 30 30 30 30 30 29 28 27 26 26 26 26 26 25 24 23 22 22 21 20 20 19 18 17
13 12 11 12 12 13 15 17 19 21 23 23 25 27 28 28 29 29 29 30 30 30 29 29 28 27 26 25 24 24 24 24 23 23 22 21 21 20 19 18 18 18 17 16
13 13 13 12 13 14 16 18 19 21 23 24 25 27 28 28 29 30 30 29 29 29 28 27 25 24 23 22 22 21 21 21 20 19 18 18 17 18 17 17 16 15 14 14
12 12 12 12 14 14 16 18 20 21 23 25 27 28 27 28 28 29 29 28 28 27 25 24 23 22 20 19 18 18 17 16 15 15 15 14 13 14 14 14 15 14 13 13
12 13 14 13 13 14 17 19 19 21 22 25 26 28 28 28 28 28 27 26 25 24 22 21 19 19 17 16 15 14 13 12 12 12 12 12 11 10 11 12 12 13 12 12
11 12 14 14 12 14 16 18 21 22 23 25 26 27 27 27 26 25 24 23 22 20 19 17 16 15 14 13 12 11 9 9 9 9 9 10 10 9 9 10 11 10 10 10
11 12 13 13 13 16 18 20 22 23 24 25 25 26 26 25 24 23 22 20 18 16 15 14 13 11 10 9 8 8 7 7 8 8 7 8 9 8 8 8 8 8 8 8
10 11 12 13 14 15 18 20 21 22 24 24 25 24 24 23 22 21 19 17 15 13 12 10 9 8 7 6 5 5 5 5 6 6 7 7 7 8 7 6 6 6 6 6
9 10 11 12 13 15 17 19 21 22 23 23 23 22 22 20 19 17 15 13 12 10 8 7 6 5 4 3 1 2 4 5 6 6 7 7 6 5 5 6 6 5 4 4
9 9 10 11 13 15 17 18 20 22 21 21 21 20 19 18 16 14 12 10 9 7 5 4 4 3 2 0 2 5 5 6 7 6 6 6 5 5 5 5 4 4 3 2
8 9 11 12 13 15 16 18 19 19 19 19 18 17 16 14 13 12 10 8 6 4 3 2 2 2 2 4 5 7 7 7 7 7 6 6 6 6 6 5 4 4 3 3
7 9 10 12 13 14 15 16 17 17 17 17 16 15 14 12 11 10 9 7 6 5 3 3 3 4 5 6 7 7 8 8 8 7 7 7 7 6 6 5 5 6 6 5
7 9 10 10 11 12 13 14 15 16 15 14 13 13 12 11 10 9 8 7 6 5 4 4 5 5 7 8 8 8 9 9 9 8 8 8 8 7 7 7 8 8 8 7
7 8 9 9 10 11 12 13 14 14 14 13 12 12 11 11 10 9 8 8 7 7 6 6 6 7 7 8 9 9 9 9 9 9 9 9 9 9 9 10 10 10 10 10
8 8 8 8 9 10 11 11 12 13 13 12 12 11 11 10 10 9 9 9 8 8 8 8 8 7 8 9 10 10 9 9 10 10 10 10 11 11 12 12 12 12 12 12
7 7 7 7 8 9 10 10 11 12 12 12 11 11 11 11 10 10 10 9 9 9 9 9 9 9 10 10 10 10 11 11 12 12 12 13 13 14 14 14 14 14 14 14
6 6 7 7 7 8 9 10 11 11 12 11 10 11 11 11 11 11 10 10 10 10 11 11 11 11 11 12 12 13 14 14 14 14 14 14 14 14 14 14 14 14 14 14
5 6 6 7 7 8 8 9 10 11 11 11 10 10 10 11 11 11 11 11 11 11 12 12 12 13 14 14 14 14 15 15 15 15 14 14 14 14 14 14 14 14 14 14
5 5 6 6 6 7 7 8 9 10 10 11 10 9 10 10 10 10 11 11 11 11 12 12 13 14 14 14 14 15 15 15 15 15 14 15 15 15 15 15 15 15 15 14
4 5 5 6 6 6 7 6 7 9 10 10 10 10 10 10 10 10 10 10 11 11 12 12 13 13 13 14 14 14 15 15 15 15 15 15 15 15 15 15 15 14 14 14
4 4 5 5 5 6 6 5 6 7 8 9 9 9 10 10 10 10 9 9 10 10 10 11 11 12 12 13 13 13 14 15 14 14 15 15 14 14 14 14 14 14 13 13
5 5 5 4 5 5 4 4 4 5 6 7 8 8 8 9 9 9 9 9 9 9 10 10 10 11 11 12 12 13 13 14 14 14 14 14 14 14 14 13 13 13 13 13
6 6 5 5 4 3 2 2 3 3 4 5 6 7 7 7 7 8 8 8 8 8 9 10 10 11 11 12 12 12 13 13 13 13 13 13 13 13 13 13 12 12 12 12
8 7 7 6 5 4 3 2 2 1 1 2 3 4 5 5 6 6 7 7 7 7 8 9 10 10 11 11 11 12 12 13 12 12 12 12 11 11 11 11 10 10 10 9
10 9 8 8 7 6 5 4 3 3 2 1 0 1 2 3 4 5 5 6 7 7 8 9 10 10 10 10 10 11 11 10 10 10 10 10 10 9 9 8 8 7 7 7
12 11 10 10 10 9 8 7 6 5 5 4 3 2 1 2 2 3 4 5 6 6 7 8 8 8 8 8 8 8 8 8 8 8 8 8 8 7 7 6 6 6 6 6
Wind_Direction
230 238 242 246 246 254 258 262 270 276 281 286 292 294 296 298 298 298 297 297 297 296 296 295 293 291 289 288 285 283 279 277 276 275 273 270 269 269 268 267 265 264 264 262
230 235 243 255 256 256 260 265 270 278 284 289 294 297 298 299 299 299 299 298 298 297 297 295 293 291 288 286 284 282 279 277 275 274 271 268 266 264 267 266 262 261 264 264
226 235 246 253 252 259 266 270 274 278 282 289 294 296 298 299 300 300 300 300 299 298 297 295 294 291 287 286 283 281 278 276 273 270 267 264 261 260 261 261 257 256 257 258
230 237 247 250 253 257 266 273 281 282 285 291 294 298 300 301 300 301 301 300 299 299 298 297 295 293 291 287 283 281 279 276 270 264 260 260 259 258 255 252 251 252 251 255
237 241 247 253 256 262 270 279 287 289 294 299 300 302 303 304 304 304 303 302 301 300 298 296 294 293 292 288 283 281 280 275 266 259 256 251 256 254 250 246 244 244 246 250
240 244 255 259 262 275 283 288 291 294 299 304 307 306 308 309 308 307 305 304 302 301 299 296 294 294 291 286 283 281 277 269 260 254 248 245 250 249 247 243 238 238 243 247
243 254 262 270 283 292 292 298 301 304 308 309 309 310 311 311 311 309 307 306 304 302 300 297 295 294 291 285 281 275 267 257 247 243 236 238 242 242 241 235 232 232 235 240
247 256 262 272 283 291 296 300 304 307 309 311 312 312 312 313 311 310 309 308 306 303 302 300 298 295 293 288 278 266 261 251 232 225 227 227 224 223 225 223 224 230 234 238
259 265 273 281 288 294 301 305 308 311 312 313 314 316 317 316 315 313 312 311 309 306 304 303 301 299 296 291 271 251 241 218 204 207 208 208 207 206 205 205 212 220 228 236
266 275 281 290 293 299 307 311 314 315 318 319 319 321 322 322 321 319 318 316 314 312 308 306 306 312 308 294 253 197 179 179 183 185 180 179 188 184 186 193 202 207 210 224
275 287 298 301 305 308 311 314 317 319 322 325 326 327 327 328 329 332 334 331 325 320 316 312 311 315 328 318 153 151 154 158 160 162 164 162 161 160 159 162 173 179 184 199
289 296 301 306 309 313 316 319 321 324 327 330 331 333 334 337 340 344 345 347 349 345 344 350 360 40 89 112 125 128 128 137 146 145 142 144 147 141 138 142 144 146 148 146
304 306 309 312 314 317 320 324 328 331 333 335 338 343 346 348 352 356 0 7 14 23 43 61 76 83 97 108 112 118 123 128 131 131 128 125 127 128 127 126 124 122 115 113
318 320 321 322 322 325 330 334 336 339 341 344 348 353 358 2 7 13 18 25 32 46 68 85 92 95 105 108 108 113 117 121 120 118 119 119 117 114 111 109 107 106 103 98
327 326 327 328 329 334 339 344 348 352 354 356 359 3 9 16 23 29 33 39 51 63 74 85 93 99 107 109 111 114 116 116 115 113 114 114 114 112 108 106 104 102 99 97
328 328 329 332 339 345 347 352 357 1 4 7 11 15 18 23 29 34 41 48 59 65 72 81 94 100 103 110 113 113 113 113 113 113 111 111 112 111 108 105 104 102 100 99
335 337 340 341 346 352 357 0 4 7 10 14 20 25 27 30 38 46 52 56 62 70 76 84 92 98 103 107 111 113 113 111 110 110 109 109 108 106 104 104 103 101 98 96
343 344 349 349 351 358 5 10 12 15 18 23 31 34 36 39 45 52 59 64 70 76 79 83 90 96 101 106 110 111 110 109 107 107 107 106 105 105 104 104 103 102 99 96
343 349 352 354 357 2 9 16 20 21 24 29 35 39 42 47 52 59 67 72 75 80 82 84 89 95 99 102 105 108 108 109 109 107 108 108 107 107 106 105 103 100 97 94
344 350 355 359 2 7 12 20 25 29 30 34 38 44 51 55 61 68 72 77 81 84 85 88 93 96 99 102 105 107 109 109 109 107 107 108 108 106 105 104 101 99 97 94
333 344 351 360 6 9 13 22 30 32 33 37 43 50 56 61 66 72 78 82 85 86 89 92 96 99 101 104 107 109 110 109 108 107 107 107 107 106 104 102 100 98 95 94
312 325 338 351 0 6 13 25 31 34 36 40 46 52 59 64 69 73 79 85 88 90 92 95 98 101 103 105 108 109 111 111 109 109 109 109 107 105 103 101 99 97 96 94
296 304 315 326 340 352 4 18 25 33 39 44 49 54 61 66 70 73 78 84 90 94 97 98 100 103 105 107 109 109 111 112 112 112 112 110 108 106 104 102 101 99 96 94
282 287 293 300 312 326 336 352 7 24 38 48 55 58 63 68 71 75 80 86 93 99 102 104 106 107 108 109 111 113 114 114 114 114 112 110 109 108 106 104 102 98 95 91
271 274 278 280 283 286 285 293 304 333 21 45 60 66 68 71 75 79 83 89 95 103 109 112 114 114 113 113 115 116 116 116 115 115 113 112 112 110 108 105 100 95 91 87
266 267 268 268 267 266 263 261 257 251 252 251 134 90 78 78 84 91 95 100 102 107 115 119 122 122 121 120 120 120 119 119 119 119 117 116 116 114 111 106 101 94 88 83
263 263 264 262 260 258 255 251 247 243 239 230 213 195 160 131 118 114 114 117 119 119 123 127 130 131 130 131 132 130 129 128 127 126 124 123 121 119 115 108 100 93 85 78
Height
5779 5780 5781 5783 5785 5786 5786 5786 5785 5783 5780 5778 5777 5775 5773 5771 5769 5766 5763 5760 5757 5754 5751 5748 5745 5742 5740 5738 5736 5735 5734 5734 5733 5733 5733 5733 5734 5735 5735 5736 5737 5738 5739 5740
5776 5778 5779 5780 5782 5783 5783 5782 5781 5780 5777 5775 5773 5771 5768 5766 5762 5759 5756 5753 5750 5746 5743 5740 5737 5734 5732 5730 5728 5727 5726 5726 5726 5726 5726 5726 5727 5728 5730 5731 5732 5733 5735 5736
5774 5775 5776 5778 5778 5779 5779 5778 5777 5775 5774 5771 5768 5766 5763 5759 5756 5752 5749 5745 5742 5738 5735 5732 5729 5726 5724 5722 5721 5720 5719 5719 5718 5718 5719 5720 5721 5723 5724 5726 5727 5729 5730 5732
5771 5773 5774 5776 5775 5775 5775 5773 5773 5771 5768 5766 5763 5760 5757 5753 5749 5746 5742 5738 5734 5730 5727 5724 5721 5718 5717 5715 5714 5713 5713 5712 5712 5713 5714 5715 5716 5718 5720 5721 5723 5725 5727 5729
5769 5770 5771 5771 5771 5771 5770 5769 5768 5766 5763 5760 5757 5753 5750 5746 5742 5738 5734 5730 5726 5723 5720 5717 5714 5712 5710 5709 5708 5708 5707 5707 5708 5708 5709 5711 5713 5714 5716 5718 5720 5722 5723 5725
5766 5767 5767 5767 5767 5767 5768 5765 5763 5761 5758 5755 5751 5748 5744 5739 5735 5730 5726 5723 5719 5716 5713 5711 5708 5707 5705 5704 5704 5703 5703 5703 5704 5705 5706 5708 5710 5711 5713 5715 5717 5719 5721 5723
5764 5765 5764 5764 5764 5765 5765 5763 5759 5756 5753 5750 5746 5742 5737 5732 5728 5724 5720 5716 5713 5710 5708 5706 5704 5702 5701 5700 5700 5700 5700 5701 5701 5703 5704 5706 5707 5709 5711 5713 5715 5717 5719 5721
5762 5762 5764 5762 5762 5762 5761 5757 5755 5752 5748 5744 5740 5736 5731 5726 5722 5718 5715 5711 5708 5706 5704 5702 5700 5699 5698 5697 5697 5697 5698 5698 5700 5701 5703 5704 5706 5708 5710 5712 5714 5716 5718 5720
5760 5762 5761 5760 5759 5758 5756 5754 5751 5748 5744 5740 5735 5731 5726 5721 5717 5714 5710 5707 5704 5702 5701 5699 5698 5697 5696 5696 5696 5696 5696 5697 5699 5700 5702 5704 5705 5707 5709 5711 5713 5715 5717 5719
5758 5758 5758 5758 5757 5755 5753 5750 5747 5743 5739 5735 5731 5726 5722 5717 5713 5710 5706 5704 5702 5700 5699 5698 5697 5696 5696 5695 5695 5696 5696 5698 5699 5700 5702 5704 5706 5707 5709 5711 5713 5715 5716 5718
5757 5757 5756 5756 5754 5752 5750 5747 5743 5739 5735 5731 5727 5723 5719 5715 5711 5707 5705 5702 5700 5699 5698 5697 5697 5696 5696 5696 5696 5696 5697 5698 5700 5702 5703 5705 5707 5708 5710 5711 5713 5715 5716 5718
5756 5755 5755 5754 5752 5749 5747 5744 5740 5736 5732 5728 5724 5721 5717 5713 5710 5707 5704 5702 5700 5699 5698 5698 5697 5697 5697 5697 5697 5698 5699 5700 5702 5704 5705 5706 5708 5710 5711 5713 5714 5715 5716 5718
5754 5753 5752 5751 5749 5747 5744 5741 5737 5734 5730 5727 5723 5719 5716 5713 5710 5707 5705 5703 5701 5700 5699 5699 5699 5699 5699 5699 5700 5700 5702 5703 5704 5706 5707 5709 5710 5712 5713 5714 5715 5716 5717 5719
5753 5752 5751 5749 5747 5745 5742 5739 5736 5732 5728 5725 5722 5719 5716 5713 5710 5708 5706 5704 5703 5702 5701 5701 5701 5701 5702 5702 5703 5704 5705 5706 5707 5708 5710 5711 5713 5714 5715 5716 5717 5718 5719 5720
5752 5751 5749 5748 5746 5743 5741 5738 5735 5732 5728 5725 5722 5720 5717 5715 5712 5710 5709 5707 5706 5705 5704 5704 5704 5704 5704 5705 5706 5707 5708 5709 5711 5712 5713 5714 5716 5717 5718 5719 5720 5721 5722 5723
5751 5750 5748 5747 5745 5743 5741 5738 5736 5732 5729 5726 5724 5721 5719 5717 5715 5713 5711 5710 5709 5708 5707 5706 5707 5707 5708 5708 5709 5710 5711 5713 5714 5715 5716 5718 5719 5720 5721 5722 5723 5724 5725 5726
5751 5749 5748 5746 5745 5743 5741 5739 5736 5733 5731 5728 5726 5723 5721 5719 5717 5716 5714 5713 5712 5711 5710 5710 5710 5711 5711 5712 5713 5714 5715 5716 5717 5719 5720 5721 5722 5723 5724 5726 5727 5728 5729 5730
5750 5749 5748 5746 5745 5743 5741 5739 5737 5735 5732 5730 5728 5726 5724 5722 5721 5719 5718 5717 5716 5716 5715 5714 5714 5715 5715 5715 5716 5718 5719 5720 5721 5723 5724 5725 5726 5727 5729 5730 5731 5732 5732 5733
5750 5749 5748 5747 5745 5744 5742 5740 5739 5737 5735 5732 5730 5729 5727 5725 5724 5723 5722 5721 5720 5720 5720 5719 5719 5719 5720 5720 5721 5722 5723 5724 5726 5727 5728 5729 5730 5732 5733 5734 5735 5736 5736 5737
5750 5750 5749 5747 5746 5745 5743 5742 5740 5739 5737 5735 5733 5731 5730 5729 5728 5727 5726 5725 5725 5725 5725 5724 5724 5724 5725 5725 5726 5727 5728 5729 5730 5732 5733 5734 5735 5736 5737 5738 5739 5739 5740 5741
5751 5750 5749 5748 5747 5746 5745 5744 5742 5741 5739 5738 5736 5735 5733 5732 5731 5731 5730 5730 5730 5729 5729 5729 5729 5730 5730 5730 5731 5732 5733 5734 5735 5736 5737 5738 5739 5740 5741 5742 5743 5744 5744 5745
5751 5750 5750 5749 5748 5747 5746 5745 5744 5743 5742 5740 5739 5738 5737 5736 5735 5734 5734 5734 5734 5734 5734 5734 5734 5734 5735 5735 5736 5736 5737 5738 5739 5740 5741 5743 5743 5744 5745 5746 5747 5748 5748 5749
5750 5750 5750 5749 5748 5748 5747 5746 5746 5745 5744 5743 5742 5741 5740 5740 5739 5738 5738 5738 5738 5738 5738 5738 5738 5739 5739 5739 5740 5741 5742 5743 5744 5745 5746 5747 5748 5748 5749 5750 5751 5751 5752 5752
5749 5749 5749 5749 5748 5748 5748 5747 5747 5746 5745 5745 5744 5744 5743 5743 5742 5742 5742 5742 5741 5741 5741 5742 5742 5743 5743 5744 5744 5745 5746 5747 5748 5749 5750 5751 5751 5752 5753 5754 5754 5755 5756 5756
5748 5748 5748 5748 5748 5748 5747 5747 5747 5747 5746 5746 5746 5746 5745 5745 5745 5745 5745 5745 5744 5744 5745 5745 5746 5746 5747 5748 5749 5750 5750 5751 5752 5753 5754 5754 5755 5756 5757 5757 5758 5758 5759 5759
5746 5746 5746 5746 5746 5746 5747 5747 5747 5747 5747 5747 5747 5747 5747 5747 5747 5747 5747 5747 5747 5747 5748 5748 5749 5750 5751 5752 5752 5753 5754 5755 5755 5756 5757 5757 5758 5759 5760 5760 5761 5761 5761 5761
5743 5743 5744 5744 5744 5745 5745 5745 5746 5746 5747 5747 5747 5748 5748 5748 5748 5749 5749 5749 5750 5750 5751 5751 5752 5753 5754 5755 5755 5756 5757 5757 5758 5759 5759 5760 5761 5761 5762 5762 5762 5763 5763 5763